Time,TemperatureF,DewpointF,PressureIn,WindDirection,WindDirectionDegrees,WindSpeedMPH,WindSpeedGustMPH,Humidity,HourlyPrecipIn,Conditions,Clouds,dailyrainin,SoftwareType,DateUTC
2013-03-29 00:03:00,51.0,42.0,30.09,ESE,123,0.0,1.0,70,0.00,,,0.00,,2013-03-29 05:03:00,
2013-03-29 00:12:00,51.0,42.0,30.09,ESE,123,0.0,1.0,70,0.00,,,0.00,,2013-03-29 05:12:00,
2013-03-29 00:23:00,50.0,41.0,30.09,ESE,123,0.0,0.0,71,0.00,,,0.00,,2013-03-29 05:23:00,
2013-03-29 00:33:00,49.0,41.0,30.09,ESE,123,0.0,0.0,74,0.00,,,0.00,,2013-03-29 05:33:00,
2013-03-29 00:43:00,49.0,41.0,30.09,ESE,123,0.0,0.0,74,0.00,,,0.00,,2013-03-29 05:43:00,
2013-03-29 00:52:00,49.0,41.0,30.09,ESE,122,0.0,0.0,75,0.00,,,0.00,,2013-03-29 05:52:00,
2013-03-29 01:02:00,49.0,41.0,30.09,ESE,123,0.0,0.0,75,0.00,,,0.00,,2013-03-29 06:02:00,
2013-03-29 01:12:00,49.0,41.0,30.09,ESE,123,0.0,0.0,75,0.00,,,0.00,,2013-03-29 06:12:00,
2013-03-29 01:23:00,50.0,42.0,30.09,ESE,122,0.0,0.0,74,0.00,,,0.00,,2013-03-29 06:23:00,
2013-03-29 01:32:00,51.0,42.0,30.09,East,81,0.0,0.0,71,0.00,,,0.00,,2013-03-29 06:32:00,
2013-03-29 01:42:00,51.0,42.0,30.09,East,81,0.0,0.0,71,0.00,,,0.00,,2013-03-29 06:42:00,
2013-03-29 01:52:00,51.0,42.0,30.10,East,80,0.0,0.0,71,0.00,,,0.00,,2013-03-29 06:52:00,
2013-03-29 02:03:00,50.0,42.0,30.10,East,81,0.0,0.0,73,0.00,,,0.00,,2013-03-29 07:03:00,
2013-03-29 02:12:00,50.0,42.0,30.10,East,81,0.0,0.0,73,0.00,,,0.00,,2013-03-29 07:12:00,
2013-03-29 02:22:00,50.0,42.0,30.09,East,81,0.0,0.0,73,0.00,,,0.00,,2013-03-29 07:22:00,
2013-03-29 02:32:00,50.0,42.0,30.09,East,81,0.0,0.0,74,0.00,,,0.00,,2013-03-29 07:32:00,
2013-03-29 02:42:00,50.0,42.0,30.09,East,81,0.0,0.0,74,0.00,,,0.00,,2013-03-29 07:42:00,
2013-03-29 02:52:00,49.0,41.0,30.09,East,81,0.0,0.0,75,0.00,,,0.00,,2013-03-29 07:52:00,
2013-03-29 03:02:00,49.0,42.0,30.09,East,87,0.0,0.0,77,0.00,,,0.00,,2013-03-29 08:02:00,
2013-03-29 03:12:00,49.0,42.0,30.09,East,87,0.0,0.0,77,0.00,,,0.00,,2013-03-29 08:12:00,
2013-03-29 03:22:00,48.0,41.0,30.09,East,88,0.0,0.0,77,0.00,,,0.00,,2013-03-29 08:22:00,
2013-03-29 03:32:00,47.0,41.0,30.09,East,88,0.0,0.0,79,0.00,,,0.00,,2013-03-29 08:32:00,
2013-03-29 03:42:00,47.0,41.0,30.09,East,88,0.0,0.0,79,0.00,,,0.00,,2013-03-29 08:42:00,
2013-03-29 03:52:00,47.0,41.0,30.11,East,87,0.0,0.0,79,0.00,,,0.00,,2013-03-29 08:52:00,
2013-03-29 04:02:00,46.0,41.0,30.11,East,88,0.0,0.0,81,0.00,,,0.00,,2013-03-29 09:02:00,
2013-03-29 04:13:00,46.0,41.0,30.11,East,88,0.0,0.0,81,0.00,,,0.00,,2013-03-29 09:13:00,
2013-03-29 04:22:00,45.0,40.0,30.11,East,88,0.0,0.0,81,0.00,,,0.00,,2013-03-29 09:22:00,
2013-03-29 04:33:00,45.0,40.0,30.11,East,88,0.0,0.0,81,0.00,,,0.00,,2013-03-29 09:33:00,
2013-03-29 04:42:00,45.0,40.0,30.11,East,88,0.0,0.0,81,0.00,,,0.00,,2013-03-29 09:42:00,
2013-03-29 04:52:00,44.0,39.0,30.11,East,88,0.0,0.0,83,0.00,,,0.00,,2013-03-29 09:52:00,
2013-03-29 05:03:00,43.0,38.0,30.11,East,88,0.0,0.0,84,0.00,,,0.00,,2013-03-29 10:03:00,
2013-03-29 05:12:00,43.0,38.0,30.11,East,88,0.0,0.0,84,0.00,,,0.00,,2013-03-29 10:12:00,
2013-03-29 05:22:00,42.0,38.0,30.11,East,88,0.0,0.0,84,0.00,,,0.00,,2013-03-29 10:22:00,
2013-03-29 05:33:00,41.0,37.0,30.10,East,88,0.0,0.0,85,0.00,,,0.00,,2013-03-29 10:33:00,
2013-03-29 05:42:00,41.0,37.0,30.10,East,88,0.0,0.0,85,0.00,,,0.00,,2013-03-29 10:42:00,
2013-03-29 05:52:00,40.0,36.0,30.10,East,88,0.0,0.0,85,0.00,,,0.00,,2013-03-29 10:52:00,
2013-03-29 06:03:00,39.0,35.0,30.10,East,88,0.0,0.0,85,0.00,,,0.00,,2013-03-29 11:03:00,
2013-03-29 06:12:00,39.0,35.0,30.10,East,88,0.0,0.0,85,0.00,,,0.00,,2013-03-29 11:12:00,
2013-03-29 06:23:00,39.0,35.0,30.10,East,88,0.0,0.0,87,0.00,,,0.00,,2013-03-29 11:23:00,
2013-03-29 06:32:00,40.0,37.0,30.11,East,88,0.0,0.0,88,0.00,,,0.00,,2013-03-29 11:32:00,
2013-03-29 06:42:00,40.0,37.0,30.11,East,88,0.0,0.0,88,0.00,,,0.00,,2013-03-29 11:42:00,
2013-03-29 06:52:00,40.0,37.0,30.11,East,94,0.0,0.0,88,0.00,,,0.00,,2013-03-29 11:52:00,
2013-03-29 07:03:00,41.0,38.0,30.10,South,169,0.0,1.0,88,0.00,,,0.00,,2013-03-29 12:03:00,
2013-03-29 07:12:00,41.0,38.0,30.10,South,169,0.0,1.0,88,0.00,,,0.00,,2013-03-29 12:12:00,
2013-03-29 07:22:00,41.0,38.0,30.11,South,169,0.0,0.0,88,0.00,,,0.00,,2013-03-29 12:22:00,
2013-03-29 07:32:00,43.0,40.0,30.12,South,172,3.0,5.0,89,0.00,,,0.00,,2013-03-29 12:32:00,
2013-03-29 07:42:00,43.0,40.0,30.12,South,172,3.0,5.0,89,0.00,,,0.00,,2013-03-29 12:42:00,
2013-03-29 07:52:00,44.0,40.0,30.12,SSE,160,2.0,4.0,86,0.00,,,0.00,,2013-03-29 12:52:00,
2013-03-29 08:03:00,42.0,37.0,30.13,SSE,161,0.0,0.0,83,0.00,,,0.00,,2013-03-29 13:03:00,
2013-03-29 08:12:00,42.0,37.0,30.13,SSE,161,0.0,0.0,83,0.00,,,0.00,,2013-03-29 13:12:00,
2013-03-29 08:22:00,40.0,36.0,30.13,SSE,161,0.0,0.0,85,0.00,,,0.00,,2013-03-29 13:22:00,
2013-03-29 08:32:00,40.0,36.0,30.14,SSE,161,0.0,0.0,87,0.00,,,0.00,,2013-03-29 13:32:00,
2013-03-29 08:42:00,40.0,36.0,30.14,SSE,161,0.0,0.0,87,0.00,,,0.00,,2013-03-29 13:42:00,
2013-03-29 08:52:00,41.0,38.0,30.14,SSE,161,0.0,0.0,88,0.00,,,0.00,,2013-03-29 13:52:00,
2013-03-29 09:03:00,44.0,41.0,30.14,SSE,161,0.0,0.0,88,0.00,,,0.00,,2013-03-29 14:03:00,
2013-03-29 09:12:00,44.0,41.0,30.14,SSE,161,0.0,0.0,88,0.00,,,0.00,,2013-03-29 14:12:00,
2013-03-29 09:22:00,47.0,44.0,30.14,SSE,160,0.0,1.0,88,0.00,,,0.00,,2013-03-29 14:22:00,
2013-03-29 09:32:00,50.0,45.0,30.14,SE,125,2.0,9.0,84,0.00,,,0.00,,2013-03-29 14:32:00,
2013-03-29 09:42:00,50.0,45.0,30.14,SE,125,2.0,9.0,84,0.00,,,0.00,,2013-03-29 14:42:00,
2013-03-29 09:52:00,52.0,46.0,30.14,SE,137,9.0,11.0,81,0.00,,,0.00,,2013-03-29 14:52:00,
2013-03-29 10:02:00,54.0,48.0,30.14,SSE,151,5.0,10.0,79,0.00,,,0.00,,2013-03-29 15:02:00,
2013-03-29 10:12:00,54.0,48.0,30.14,SSE,151,5.0,10.0,79,0.00,,,0.00,,2013-03-29 15:12:00,
2013-03-29 10:22:00,55.0,48.0,30.14,SE,132,9.0,11.0,78,0.00,,,0.00,,2013-03-29 15:22:00,
2013-03-29 10:33:00,57.0,50.0,30.13,SE,139,6.0,11.0,77,0.00,,,0.00,,2013-03-29 15:33:00,
2013-03-29 10:43:00,57.0,50.0,30.13,SE,139,6.0,11.0,77,0.00,,,0.00,,2013-03-29 15:43:00,
2013-03-29 10:52:00,59.0,51.0,30.13,SE,140,7.0,11.0,74,0.00,,,0.00,,2013-03-29 15:52:00,
2013-03-29 11:03:00,60.0,51.0,30.13,SSE,165,4.0,9.0,71,0.00,,,0.00,,2013-03-29 16:03:00,
2013-03-29 11:13:00,60.0,51.0,30.13,SSE,165,4.0,9.0,71,0.00,,,0.00,,2013-03-29 16:13:00,
2013-03-29 11:23:00,61.0,52.0,30.14,SE,132,4.0,6.0,71,0.00,,,0.00,,2013-03-29 16:23:00,
2013-03-29 11:32:00,63.0,53.0,30.13,East,87,1.0,9.0,70,0.00,,,0.00,,2013-03-29 16:32:00,
2013-03-29 11:42:00,63.0,53.0,30.13,East,87,1.0,9.0,70,0.00,,,0.00,,2013-03-29 16:42:00,
2013-03-29 11:52:00,63.0,52.0,30.12,ESE,123,5.0,10.0,68,0.00,,,0.00,,2013-03-29 16:52:00,
2013-03-29 12:03:00,64.0,53.0,30.12,South,178,5.0,11.0,67,0.00,,,0.00,,2013-03-29 17:03:00,
2013-03-29 12:12:00,64.0,53.0,30.12,South,178,5.0,11.0,67,0.00,,,0.00,,2013-03-29 17:12:00,
2013-03-29 12:22:00,66.0,54.0,30.11,SE,136,4.0,14.0,65,0.00,,,0.00,,2013-03-29 17:22:00,
2013-03-29 12:33:00,66.0,53.0,30.11,East,81,0.0,13.0,63,0.00,,,0.00,,2013-03-29 17:33:00,
2013-03-29 12:42:00,66.0,53.0,30.11,East,81,0.0,13.0,63,0.00,,,0.00,,2013-03-29 17:42:00,
2013-03-29 12:52:00,68.0,54.0,30.10,SE,132,8.0,15.0,62,0.00,,,0.00,,2013-03-29 17:52:00,
2013-03-29 13:02:00,69.0,54.0,30.10,SE,141,3.0,13.0,59,0.00,,,0.00,,2013-03-29 18:02:00,
2013-03-29 13:12:00,69.0,54.0,30.10,SE,141,3.0,13.0,59,0.00,,,0.00,,2013-03-29 18:12:00,
2013-03-29 13:22:00,70.0,55.0,30.09,SE,132,7.0,13.0,59,0.00,,,0.00,,2013-03-29 18:22:00,
2013-03-29 13:32:00,70.0,55.0,30.09,East,91,7.0,15.0,58,0.00,,,0.00,,2013-03-29 18:32:00,
2013-03-29 13:42:00,70.0,55.0,30.09,East,91,7.0,15.0,58,0.00,,,0.00,,2013-03-29 18:42:00,
2013-03-29 13:52:00,71.0,54.0,30.08,SE,143,11.0,16.0,56,0.00,,,0.00,,2013-03-29 18:52:00,
2013-03-29 14:02:00,71.0,54.0,30.07,SE,138,6.0,16.0,56,0.00,,,0.00,,2013-03-29 19:02:00,
2013-03-29 14:12:00,70.0,54.0,30.07,SE,132,13.0,18.0,57,0.00,,,0.00,,2013-03-29 19:12:00,
2013-03-29 14:23:00,70.0,54.0,30.07,SE,132,13.0,18.0,57,0.00,,,0.00,,2013-03-29 19:23:00,
2013-03-29 14:32:00,71.0,54.0,30.06,SE,142,10.0,17.0,55,0.00,,,0.00,,2013-03-29 19:32:00,
2013-03-29 14:42:00,71.0,54.0,30.06,SE,142,10.0,17.0,55,0.00,,,0.00,,2013-03-29 19:42:00,
2013-03-29 14:52:00,72.0,55.0,30.05,ESE,123,8.0,15.0,55,0.00,,,0.00,,2013-03-29 19:52:00,
2013-03-29 15:02:00,72.0,52.0,30.05,SE,132,8.0,19.0,50,0.00,,,0.00,,2013-03-29 20:02:00,
2013-03-29 15:12:00,72.0,52.0,30.05,SE,132,8.0,19.0,50,0.00,,,0.00,,2013-03-29 20:12:00,
2013-03-29 15:22:00,72.0,54.0,30.04,East,95,5.0,16.0,53,0.00,,,0.00,,2013-03-29 20:22:00,
2013-03-29 15:33:00,72.0,53.0,30.04,SE,136,5.0,15.0,52,0.00,,,0.00,,2013-03-29 20:33:00,
2013-03-29 15:42:00,72.0,53.0,30.04,SE,136,5.0,15.0,52,0.00,,,0.00,,2013-03-29 20:42:00,
2013-03-29 15:52:00,72.0,53.0,30.04,SE,133,13.0,20.0,52,0.00,,,0.00,,2013-03-29 20:52:00,
2013-03-29 16:02:00,72.0,54.0,30.03,SE,136,14.0,19.0,53,0.00,,,0.00,,2013-03-29 21:02:00,
2013-03-29 16:12:00,72.0,54.0,30.03,SE,136,14.0,19.0,53,0.00,,,0.00,,2013-03-29 21:12:00,
2013-03-29 16:22:00,72.0,54.0,30.02,SE,137,11.0,18.0,53,0.00,,,0.00,,2013-03-29 21:22:00,
2013-03-29 16:33:00,73.0,53.0,30.02,SSE,160,10.0,17.0,50,0.00,,,0.00,,2013-03-29 21:33:00,
2013-03-29 16:42:00,73.0,53.0,30.02,SSE,160,10.0,17.0,50,0.00,,,0.00,,2013-03-29 21:42:00,
2013-03-29 16:53:00,72.0,52.0,30.01,SE,134,10.0,17.0,50,0.00,,,0.00,,2013-03-29 21:53:00,
2013-03-29 17:03:00,72.0,52.0,30.01,SE,135,13.0,20.0,50,0.00,,,0.00,,2013-03-29 22:03:00,
2013-03-29 17:12:00,72.0,52.0,30.01,SE,135,13.0,20.0,50,0.00,,,0.00,,2013-03-29 22:12:00,
2013-03-29 17:22:00,73.0,53.0,30.01,SE,129,13.0,19.0,50,0.00,,,0.00,,2013-03-29 22:22:00,
2013-03-29 17:33:00,72.0,52.0,30.01,SSE,160,13.0,16.0,50,0.00,,,0.00,,2013-03-29 22:33:00,
2013-03-29 17:42:00,72.0,52.0,30.01,SSE,160,13.0,16.0,50,0.00,,,0.00,,2013-03-29 22:42:00,
2013-03-29 17:52:00,73.0,52.0,30.01,SSE,149,9.0,18.0,48,0.00,,,0.00,,2013-03-29 22:52:00,
2013-03-29 18:02:00,72.0,51.0,30.01,SE,131,12.0,18.0,47,0.00,,,0.00,,2013-03-29 23:02:00,
2013-03-29 18:12:00,72.0,51.0,30.01,SE,131,12.0,18.0,47,0.00,,,0.00,,2013-03-29 23:12:00,
2013-03-29 18:22:00,71.0,51.0,30.01,South,184,13.0,16.0,49,0.00,,,0.00,,2013-03-29 23:22:00,
2013-03-29 18:32:00,71.0,51.0,30.01,South,171,7.0,20.0,50,0.00,,,0.00,,2013-03-29 23:32:00,
2013-03-29 18:42:00,71.0,51.0,30.01,South,171,7.0,20.0,50,0.00,,,0.00,,2013-03-29 23:42:00,
2013-03-29 18:52:00,70.0,51.0,30.01,SSE,159,10.0,16.0,51,0.00,,,0.00,,2013-03-29 23:52:00,
2013-03-29 19:03:00,69.0,52.0,30.01,SSE,164,9.0,16.0,54,0.00,,,0.00,,2013-03-30 00:03:00,
2013-03-29 19:12:00,69.0,52.0,30.01,SSE,164,9.0,16.0,54,0.00,,,0.00,,2013-03-30 00:12:00,
2013-03-29 19:22:00,68.0,52.0,30.01,SSE,148,9.0,15.0,56,0.00,,,0.00,,2013-03-30 00:22:00,
2013-03-29 19:32:00,66.0,51.0,30.01,SE,137,8.0,12.0,58,0.00,,,0.00,,2013-03-30 00:32:00,
2013-03-29 19:42:00,66.0,51.0,30.01,SE,137,8.0,12.0,58,0.00,,,0.00,,2013-03-30 00:42:00,
2013-03-29 19:52:00,65.0,52.0,30.01,SE,136,7.0,11.0,62,0.00,,,0.00,,2013-03-30 00:52:00,
2013-03-29 20:02:00,65.0,52.0,30.00,SE,134,9.0,14.0,63,0.00,,,0.00,,2013-03-30 01:02:00,
2013-03-29 20:12:00,65.0,52.0,30.00,SE,134,9.0,14.0,63,0.00,,,0.00,,2013-03-30 01:12:00,
2013-03-29 20:22:00,64.0,52.0,30.00,SE,143,9.0,12.0,65,0.00,,,0.00,,2013-03-30 01:22:00,
2013-03-29 20:32:00,63.0,51.0,29.99,SE,142,9.0,14.0,66,0.00,,,0.00,,2013-03-30 01:32:00,
2013-03-29 20:43:00,63.0,51.0,29.99,SE,142,9.0,14.0,66,0.00,,,0.00,,2013-03-30 01:43:00,
2013-03-29 20:52:00,63.0,52.0,30.00,SSE,148,9.0,14.0,67,0.00,,,0.00,,2013-03-30 01:52:00,
2013-03-29 21:02:00,62.0,51.0,29.99,SE,141,11.0,17.0,68,0.00,,,0.00,,2013-03-30 02:02:00,
2013-03-29 21:12:00,62.0,51.0,29.99,SE,141,11.0,17.0,68,0.00,,,0.00,,2013-03-30 02:12:00,
2013-03-29 21:22:00,61.0,51.0,29.99,SE,142,10.0,15.0,70,0.00,,,0.00,,2013-03-30 02:22:00,
2013-03-29 21:32:00,60.0,51.0,30.00,SE,144,12.0,17.0,72,0.00,,,0.00,,2013-03-30 02:32:00,
2013-03-29 21:42:00,60.0,51.0,30.00,SE,144,12.0,17.0,72,0.00,,,0.00,,2013-03-30 02:42:00,
2013-03-29 21:52:00,60.0,51.0,30.00,SE,142,11.0,19.0,73,0.00,,,0.00,,2013-03-30 02:52:00,
2013-03-29 22:02:00,59.0,51.0,30.00,SSE,154,14.0,17.0,74,0.00,,,0.00,,2013-03-30 03:02:00,
2013-03-29 22:12:00,59.0,51.0,30.01,SSE,149,12.0,19.0,76,0.00,,,0.00,,2013-03-30 03:12:00,
2013-03-29 22:22:00,59.0,51.0,30.01,SSE,149,12.0,19.0,76,0.00,,,0.00,,2013-03-30 03:22:00,
2013-03-29 22:33:00,59.0,51.0,30.00,SSE,151,12.0,18.0,76,0.00,,,0.00,,2013-03-30 03:33:00,
2013-03-29 22:43:00,59.0,51.0,30.00,SSE,151,12.0,18.0,76,0.00,,,0.00,,2013-03-30 03:43:00,
2013-03-29 22:52:00,59.0,52.0,30.01,SSE,149,12.0,17.0,77,0.00,,,0.00,,2013-03-30 03:52:00,
2013-03-29 23:02:00,59.0,52.0,30.01,South,169,12.0,17.0,77,0.00,,,0.00,,2013-03-30 04:02:00,
2013-03-29 23:12:00,59.0,52.0,30.01,South,169,12.0,17.0,77,0.00,,,0.00,,2013-03-30 04:12:00,
2013-03-29 23:23:00,59.0,52.0,30.01,SSE,161,10.0,17.0,77,0.00,,,0.00,,2013-03-30 04:23:00,
2013-03-29 23:32:00,58.0,51.0,29.99,SSE,153,13.0,19.0,78,0.00,,,0.00,,2013-03-30 04:32:00,
2013-03-29 23:43:00,58.0,51.0,29.99,SSE,153,13.0,19.0,78,0.00,,,0.00,,2013-03-30 04:43:00,
2013-03-29 23:52:00,58.0,52.0,29.98,SSE,156,13.0,19.0,79,0.00,,,0.00,,2013-03-30 04:52:00,